Change the Weather History Date:

Saturday, February 16, 2013

  Actual Average Record
Temperature  
Mean Temperature 36 °F -  
Max Temperature 51 °F 52 °F 79 °F (2011)
Min Temperature 21 °F 31 °F 5 °F (2007)
Degree Days  
Heating Degree Days 29    
Moisture  
Dew Point 22 °F    
Average Humidity 57    
Maximum Humidity 85    
Minimum Humidity 29    
Precipitation  
Precipitation 0.00 in - - ()
Sea Level Pressure  
Sea Level Pressure 30.25 in    
Wind  
Wind Speed 7 mph (SW)    
Max Wind Speed 16 mph    
Max Gust Speed 24 mph    
Visibility 10 miles    
Events      
Averages and records for this station are not official NWS values.
T = Trace of Precipitation, MM = Missing Value Source: NWS Daily Summary

Daily Weather History Graph

Daily Weather History Graph

Search for Another Location

Airport or City:

Trip Planner

Search our weather history database for the weather conditions in past years. The results will help you decide how hot, cold, wet, or windy it might be!

Date:

Astronomy

Feb. 16, 2013 Rise Set
Actual Time 7:14 AM CST 6:10 PM CST
Civil Twilight 6:48 AM CST 6:37 PM CST
Nautical Twilight 6:18 AM CST 7:07 PM CST
Astronomical Twilight 5:48 AM CST 7:37 PM CST
Moon 10:41 AM CST (2/16) No Moon Set
Length of Visible Light 11h 48m
Length of Day
10h 56m
Waxing Crescent, 39% of the Moon is Illuminated
Feb 16
Waxing Crescent
Feb 17
First Quarter
Feb 25
Full
Mar 4
Last Quarter
Mar 11
New

Hourly Weather History & Observations

Time (CST) Temp. Windchill Dew Point Humidity Pressure Visibility Wind Dir Wind Speed Gust Speed Precip Events Conditions
12:53 AM 34.0 °F 26.0 °F 30.0 °F 85% 30.38 in 10.0 mi NW 10.4 mph - N/A   Mostly Cloudy
1:53 AM 34.0 °F 28.0 °F 27.0 °F 75% 30.40 in 10.0 mi NNW 6.9 mph - N/A   Overcast
2:53 AM 30.9 °F 25.2 °F 23.0 °F 72% 30.39 in 10.0 mi NW 5.8 mph - N/A   Scattered Clouds
3:53 AM 27.0 °F 21.6 °F 21.0 °F 78% 30.38 in 10.0 mi West 4.6 mph - N/A   Clear
4:53 AM 26.1 °F 19.4 °F 19.0 °F 75% 30.38 in 10.0 mi NW 5.8 mph - N/A   Clear
6:53 AM 21.9 °F - 16.0 °F 78% 30.39 in 10.0 mi Calm Calm - N/A   Clear
7:53 AM 23.0 °F - 18.0 °F 81% 30.41 in 10.0 mi Calm Calm - N/A   Clear
8:53 AM 28.9 °F 25.2 °F 18.0 °F 64% 30.41 in 10.0 mi NW 3.5 mph - N/A   Clear
9:53 AM 33.1 °F - 16.0 °F 50% 30.39 in 10.0 mi Calm Calm - N/A   Clear
10:53 AM 35.1 °F 28.6 °F 16.0 °F 46% 30.36 in 10.0 mi South 8.1 mph - N/A   Overcast
11:53 AM 39.0 °F 32.8 °F 15.1 °F 38% 30.34 in 10.0 mi South 9.2 mph - N/A   Overcast
12:53 PM 42.1 °F 37.1 °F 16.0 °F 35% 30.28 in 10.0 mi South 8.1 mph - N/A   Overcast
1:53 PM 46.0 °F 41.4 °F 17.1 °F 31% 30.21 in 10.0 mi SSW 9.2 mph 18.4 mph N/A   Mostly Cloudy
2:53 PM 48.9 °F - 18.0 °F 29% 30.18 in 10.0 mi SSW 16.1 mph 21.9 mph N/A   Overcast
3:53 PM 50.0 °F - 19.9 °F 31% 30.16 in 10.0 mi SW 16.1 mph 24.2 mph N/A   Scattered Clouds
4:53 PM 51.1 °F - 24.1 °F 35% 30.13 in 10.0 mi SW 12.7 mph - N/A   Scattered Clouds
5:53 PM 48.9 °F - 25.0 °F 39% 30.10 in 10.0 mi SSW 10.4 mph - N/A   Clear
6:53 PM 43.0 °F 38.2 °F 26.1 °F 51% 30.10 in 10.0 mi South 8.1 mph - N/A   Mostly Cloudy
7:53 PM 42.1 °F 37.7 °F 27.0 °F 55% 30.10 in 10.0 mi SSE 6.9 mph - N/A   Clear
8:53 PM 39.0 °F 34.0 °F 28.0 °F 65% 30.09 in 10.0 mi South 6.9 mph - N/A   Clear
9:53 PM 39.0 °F 34.0 °F 28.0 °F 65% 30.08 in 10.0 mi South 6.9 mph - N/A   Partly Cloudy
10:53 PM 39.0 °F 34.8 °F 28.9 °F 67% 30.06 in 10.0 mi South 5.8 mph - N/A   Overcast
11:53 PM 37.0 °F 32.4 °F 28.0 °F 70% 30.05 in 10.0 mi South 5.8 mph - N/A   Clear